Sigonella/Catani, Italy

7:30 AM CET on February 28, 2017 (GMT +0100)
Sigonella

Weather History for LICZ - October, 2013

Change the Weather History Date:

Thursday, October 10, 2013

  Actual Average Record
Temperature  
Mean Temperature 68 °F -  
Max Temperature 80 °F 74 °F 91 °F (2004)
Min Temperature 57 °F 54 °F 51 °F (2006)
Cooling Degree Days 4    
Growing Degree Days 18 (Base 50)    
Moisture  
Dew Point 63 °F    
Average Humidity 85    
Maximum Humidity 100    
Minimum Humidity 43    
Precipitation  
Precipitation 0.00 in 0.09 in - ()
Sea Level Pressure  
Sea Level Pressure 30.01 in    
Wind  
Wind Speed 4 mph ()    
Max Wind Speed 8 mph    
Max Gust Speed -    
Visibility 6.6 miles    
Events Rain    
Averages and records for this station are not official NWS values.
T = Trace of Precipitation, MM = Missing Value Source: Averaged Metar Reports

Daily Weather History Graph

Daily Weather History Graph

Search for Another Location

Airport or City:

Trip Planner

Search our weather history database for the weather conditions in past years. The results will help you decide how hot, cold, wet, or windy it might be!

Date:

Astronomy

Oct. 10, 2013 Rise Set
Actual Time 7:03 AM CEST 6:30 PM CEST
Civil Twilight 6:37 AM CEST 6:56 PM CEST
Nautical Twilight 6:07 AM CEST 7:26 PM CEST
Astronomical Twilight 5:37 AM CEST 7:56 PM CEST
Moon 12:34 PM CEST (10/10) 10:53 PM CEST (10/10)
Length of Visible Light 12h 18m
Length of Day
11h 26m
Waxing Crescent, 33% of the Moon is Illuminated
Oct 10
Waxing Crescent
Oct 12
First Quarter
Oct 19
Full
Oct 27
Last Quarter
Nov 3
New

Hourly Weather History & Observations

Time (CEST) Temp. Dew Point Humidity Pressure Visibility Wind Dir Wind Speed Gust Speed Precip Events Conditions
12:55 AM 64.4 °F 62.6 °F 94% 30.06 in 6.2 mi WNW 5.8 mph - N/A   Partly Cloudy
1:55 AM 64.4 °F 62.6 °F 94% 30.06 in 6.2 mi West 8.1 mph - N/A   Partly Cloudy
2:55 AM 62.6 °F 60.8 °F 94% 30.06 in 6.2 mi North 5.8 mph - N/A   Scattered Clouds
3:55 AM 60.8 °F 59.0 °F 94% 30.04 in 6.2 mi NW 6.9 mph - N/A   Scattered Clouds
4:55 AM 62.6 °F 62.6 °F 100% 30.04 in 6.2 mi WSW 3.5 mph - N/A   Scattered Clouds
5:00 AM 62 °F 62 °F 100% 30.06 in 6 mi WSW 3.5 mph - -   Scattered Clouds
5:55 AM 59.0 °F 59.0 °F 100% 30.04 in 6.2 mi NW 2.3 mph - N/A   Mostly Cloudy
6:55 AM 59.0 °F 59.0 °F 100% 30.01 in 6.2 mi NNW 3.5 mph - N/A   Mostly Cloudy
7:55 AM 59.0 °F 59.0 °F 100% 30.01 in 6.2 mi WSW 4.6 mph - N/A   Mostly Cloudy
8:00 AM 60 °F 60 °F 99% 30.02 in 6 mi WSW 4.6 mph - -   Partly Cloudy
8:55 AM 60.8 °F 60.8 °F 100% 30.04 in 6.2 mi NNW 5.8 mph - N/A   Scattered Clouds
9:55 AM 64.4 °F 62.6 °F 94% 30.04 in 6.2 mi NNW 5.8 mph - N/A   Scattered Clouds
10:55 AM 71.6 °F 64.4 °F 78% 30.04 in 6.2 mi SSW 4.6 mph - N/A   Scattered Clouds
11:00 AM 71 °F 65 °F 76% 30.05 in 10 mi SSW 4.6 mph - -   Scattered Clouds
11:55 AM 73.4 °F 62.6 °F 69% 30.04 in 6.2 mi West 1.2 mph - N/A   Scattered Clouds
12:55 PM 75.2 °F 64.4 °F 69% 30.04 in 6.2 mi SE 2.3 mph - N/A Rain Light Rain
1:55 PM 78.8 °F 60.8 °F 54% 30.01 in 6.2 mi SE 4.6 mph - N/A   Mostly Cloudy
2:00 PM 79 °F 60 °F 43% 30.02 in 11 mi SE 4.6 mph - - Rain Light Rain
2:55 PM 78.8 °F 55.4 °F 44% 29.98 in 6.2 mi East 3.5 mph - N/A   Mostly Cloudy
4:55 PM 77.0 °F 62.6 °F 61% 29.98 in 6.2 mi East 4.6 mph - N/A   Scattered Clouds
5:00 PM 78 °F 62 °F 48% 29.98 in 7 mi East 4.6 mph - - Rain Light Rain
5:55 PM 75.2 °F 62.6 °F 65% 29.95 in 6.2 mi ESE 3.5 mph - N/A   Scattered Clouds
6:55 PM 73.4 °F 68.0 °F 83% 29.98 in 6.2 mi East 4.6 mph - N/A   Mostly Cloudy
7:55 PM 71.6 °F 71.6 °F 100% 29.95 in 6.2 mi East 4.6 mph - N/A   Mostly Cloudy
8:00 PM 72 °F 72 °F 100% 29.97 in 9 mi East 4.6 mph - -   Partly Cloudy
8:55 PM 68.0 °F 68.0 °F 100% 29.95 in 6.2 mi NE 3.5 mph - N/A   Mostly Cloudy
9:55 PM 68.0 °F 68.0 °F 100% 29.95 in 6.2 mi ENE 5.8 mph - N/A   Mostly Cloudy
10:55 PM 68.0 °F 68.0 °F 100% 29.98 in 6.2 mi ENE 3.5 mph - N/A   Mostly Cloudy
11:00 PM 68 °F 68 °F 100% 29.98 in 6 mi ENE 3.5 mph - -   Partly Cloudy
11:55 PM 68.0 °F 68.0 °F 100% 29.98 in 6.2 mi West 6.9 mph - N/A   Mostly Cloudy